Year,Month,Day,Hour,Minute,Value (Times are PST for temperature in C)
2011,10,17,00,00,3.60
2011,10,17,00,01,3.60
2011,10,17,00,02,3.60
2011,10,17,00,03,3.60
2011,10,17,00,04,3.60
2011,10,17,00,05,3.60
2011,10,17,00,06,3.60
2011,10,17,00,07,3.60
2011,10,17,00,08,3.60
2011,10,17,00,09,3.60
2011,10,17,00,10,3.60
2011,10,17,00,11,3.50
2011,10,17,00,12,3.50
2011,10,17,00,13,3.50
2011,10,17,00,14,3.50
2011,10,17,00,15,3.50
2011,10,17,00,16,3.50
2011,10,17,00,17,3.50
2011,10,17,00,18,3.60
2011,10,17,00,19,3.60
2011,10,17,00,20,3.50
2011,10,17,00,21,3.50
2011,10,17,00,22,3.50
2011,10,17,00,23,3.50
2011,10,17,00,24,3.50
2011,10,17,00,25,3.50
2011,10,17,00,26,3.50
2011,10,17,00,27,3.50
2011,10,17,00,28,3.50
2011,10,17,00,29,3.50
2011,10,17,00,30,3.50
2011,10,17,00,31,3.50
2011,10,17,00,32,3.50
2011,10,17,00,33,3.50
2011,10,17,00,34,3.50
2011,10,17,00,35,3.50
2011,10,17,00,36,3.50
2011,10,17,00,37,3.50
2011,10,17,00,38,3.40
2011,10,17,00,39,3.40
2011,10,17,00,40,3.40
2011,10,17,00,41,3.40
2011,10,17,00,42,3.40
2011,10,17,00,43,3.40
2011,10,17,00,44,3.40
2011,10,17,00,45,3.40
2011,10,17,00,46,3.40
2011,10,17,00,47,3.40
2011,10,17,00,48,3.30
2011,10,17,00,49,3.30
2011,10,17,00,50,3.30
2011,10,17,00,51,3.30
2011,10,17,00,52,3.30
2011,10,17,00,53,3.30
2011,10,17,00,54,3.30
2011,10,17,00,55,3.30
2011,10,17,00,56,3.30
2011,10,17,00,57,3.30
2011,10,17,00,58,3.30
2011,10,17,00,59,3.30
2011,10,17,01,00,3.30
2011,10,17,01,01,3.30
2011,10,17,01,02,3.30
2011,10,17,01,03,3.30
2011,10,17,01,04,3.30
2011,10,17,01,05,3.30
2011,10,17,01,06,3.30
2011,10,17,01,07,3.30
2011,10,17,01,08,3.30
2011,10,17,01,09,3.30
2011,10,17,01,10,3.30
2011,10,17,01,11,3.30
2011,10,17,01,12,3.30
2011,10,17,01,13,3.30
2011,10,17,01,14,3.30
2011,10,17,01,15,3.30
2011,10,17,01,16,3.40
2011,10,17,01,17,3.40
2011,10,17,01,18,3.40
2011,10,17,01,19,3.40
2011,10,17,01,20,3.40
2011,10,17,01,21,3.40
2011,10,17,01,22,3.40
2011,10,17,01,23,3.40
2011,10,17,01,24,3.40
2011,10,17,01,25,3.40
2011,10,17,01,26,3.40
2011,10,17,01,27,3.40
2011,10,17,01,28,3.40
2011,10,17,01,29,3.40
2011,10,17,01,30,3.50
2011,10,17,01,31,3.50
2011,10,17,01,32,3.50
2011,10,17,01,33,3.50
2011,10,17,01,34,3.50
2011,10,17,01,35,3.50
2011,10,17,01,36,3.50
2011,10,17,01,37,3.50
2011,10,17,01,38,3.50
2011,10,17,01,39,3.50
2011,10,17,01,40,3.60
2011,10,17,01,41,3.60
2011,10,17,01,42,3.60
2011,10,17,01,43,3.60
2011,10,17,01,44,3.60
2011,10,17,01,45,3.60
2011,10,17,01,46,3.60
2011,10,17,01,47,3.60
2011,10,17,01,48,3.60
2011,10,17,01,49,3.60
2011,10,17,01,50,3.70
2011,10,17,01,51,3.70
2011,10,17,01,52,3.70
2011,10,17,01,53,3.70
2011,10,17,01,54,3.70
2011,10,17,01,55,3.70
2011,10,17,01,56,3.70
2011,10,17,01,57,3.70
2011,10,17,01,58,3.70
2011,10,17,01,59,3.80
2011,10,17,02,00,3.80
2011,10,17,02,01,3.80
2011,10,17,02,02,3.80
2011,10,17,02,03,3.80
2011,10,17,02,04,3.90
2011,10,17,02,05,3.90
2011,10,17,02,06,3.90
2011,10,17,02,07,3.90
2011,10,17,02,08,3.90
2011,10,17,02,09,4.00
2011,10,17,02,10,4.00
2011,10,17,02,11,4.00
2011,10,17,02,12,4.10
2011,10,17,02,13,4.10
2011,10,17,02,14,4.10
2011,10,17,02,15,4.10
2011,10,17,02,16,4.20
2011,10,17,02,17,4.20
2011,10,17,02,18,4.20
2011,10,17,02,19,4.20
2011,10,17,02,20,4.20
2011,10,17,02,21,4.20
2011,10,17,02,22,4.20
2011,10,17,02,23,4.20
2011,10,17,02,24,4.20
2011,10,17,02,25,4.20
2011,10,17,02,26,4.20
2011,10,17,02,27,4.20
2011,10,17,02,28,4.30
2011,10,17,02,29,4.30
2011,10,17,02,30,4.30
2011,10,17,02,31,4.30
2011,10,17,02,32,4.30
2011,10,17,02,33,4.40
2011,10,17,02,34,4.40
2011,10,17,02,35,4.40
2011,10,17,02,36,4.40
2011,10,17,02,37,4.40
2011,10,17,02,38,4.50
2011,10,17,02,39,4.50
2011,10,17,02,40,4.50
2011,10,17,02,41,4.60
2011,10,17,02,42,4.60
2011,10,17,02,43,4.60
2011,10,17,02,44,4.60
2011,10,17,02,45,4.60
2011,10,17,02,46,4.60
2011,10,17,02,47,4.70
2011,10,17,02,48,4.70
2011,10,17,02,49,4.70
2011,10,17,02,50,4.70
2011,10,17,02,51,4.70
2011,10,17,02,52,4.80
2011,10,17,02,53,4.80
2011,10,17,02,54,4.80
2011,10,17,02,55,4.80
2011,10,17,02,56,4.80
2011,10,17,02,57,4.80
2011,10,17,02,58,4.80
2011,10,17,02,59,4.80
2011,10,17,03,00,4.80
2011,10,17,03,01,4.80
2011,10,17,03,02,4.80
2011,10,17,03,03,4.80
2011,10,17,03,04,4.80
2011,10,17,03,05,4.80
2011,10,17,03,06,4.80
2011,10,17,03,07,4.80
2011,10,17,03,08,4.80
2011,10,17,03,09,4.80
2011,10,17,03,10,4.80
2011,10,17,03,11,4.80
2011,10,17,03,12,4.90
2011,10,17,03,13,4.90
2011,10,17,03,14,4.90
2011,10,17,03,15,4.90
2011,10,17,03,16,4.90
2011,10,17,03,17,4.90
2011,10,17,03,18,4.90
2011,10,17,03,19,4.90
2011,10,17,03,20,4.90
2011,10,17,03,21,4.90
2011,10,17,03,22,4.90
2011,10,17,03,23,4.90
2011,10,17,03,24,4.90
2011,10,17,03,25,4.90
2011,10,17,03,26,4.90
2011,10,17,03,27,4.90
2011,10,17,03,28,4.90
2011,10,17,03,29,5.00
2011,10,17,03,30,5.00
2011,10,17,03,31,5.00
2011,10,17,03,32,5.00
2011,10,17,03,33,5.10
2011,10,17,03,34,5.10
2011,10,17,03,35,5.10
2011,10,17,03,36,5.10
2011,10,17,03,37,5.10
2011,10,17,03,38,5.10
2011,10,17,03,39,5.10
2011,10,17,03,40,5.10
2011,10,17,03,41,5.10
2011,10,17,03,42,5.10
2011,10,17,03,43,5.10
2011,10,17,03,44,5.10
2011,10,17,03,49,5.20
2011,10,17,03,50,5.20
2011,10,17,03,51,5.20
2011,10,17,03,52,5.20
2011,10,17,03,53,5.20
2011,10,17,03,54,5.20
2011,10,17,03,55,5.30
2011,10,17,03,56,5.30
2011,10,17,03,57,5.30
2011,10,17,03,58,5.30
2011,10,17,03,59,5.30
2011,10,17,04,00,5.30
2011,10,17,04,01,5.30
2011,10,17,04,02,5.30
2011,10,17,04,03,5.30
2011,10,17,04,04,5.30
2011,10,17,04,05,5.30
2011,10,17,04,06,5.30
2011,10,17,04,07,5.30
2011,10,17,04,08,5.30
2011,10,17,04,09,5.30
2011,10,17,04,10,5.30
2011,10,17,04,11,5.30
2011,10,17,04,12,5.40
2011,10,17,04,13,5.40
2011,10,17,04,14,5.40
2011,10,17,04,15,5.40
2011,10,17,04,16,5.40
2011,10,17,04,17,5.40
2011,10,17,04,18,5.40
2011,10,17,04,19,5.40
2011,10,17,04,20,5.30
2011,10,17,04,21,5.30
2011,10,17,04,22,5.30
2011,10,17,04,23,5.30
2011,10,17,04,24,5.30
2011,10,17,04,25,5.30
2011,10,17,04,26,5.30
2011,10,17,04,27,5.30
2011,10,17,04,28,5.30
2011,10,17,04,29,5.30
2011,10,17,04,30,5.30
2011,10,17,04,31,5.30
2011,10,17,04,32,5.30
2011,10,17,04,33,5.40
2011,10,17,04,34,5.40
2011,10,17,04,35,5.40
2011,10,17,04,36,5.40
2011,10,17,04,37,5.40
2011,10,17,04,38,5.40
2011,10,17,04,39,5.40
2011,10,17,04,40,5.40
2011,10,17,04,41,5.40
2011,10,17,04,42,5.40
2011,10,17,04,43,5.40
2011,10,17,04,44,5.40
2011,10,17,04,45,5.40
2011,10,17,04,46,5.40
2011,10,17,04,47,5.40
2011,10,17,04,48,5.40
2011,10,17,04,49,5.40
2011,10,17,04,50,5.40
2011,10,17,04,51,5.40
2011,10,17,04,52,5.40
2011,10,17,04,53,5.40
2011,10,17,04,54,5.40
2011,10,17,04,55,5.40
2011,10,17,04,56,5.40
2011,10,17,04,57,5.40
2011,10,17,04,58,5.40
2011,10,17,04,59,5.40
2011,10,17,05,00,5.40
2011,10,17,05,01,5.40
2011,10,17,05,02,5.40
2011,10,17,05,03,5.40
2011,10,17,05,04,5.40
2011,10,17,05,05,5.40
2011,10,17,05,06,5.40
2011,10,17,05,07,5.40
2011,10,17,05,08,5.40
2011,10,17,05,09,5.40
2011,10,17,05,10,5.40
2011,10,17,05,11,5.40
2011,10,17,05,12,5.40
2011,10,17,05,13,5.40
2011,10,17,05,14,5.40
2011,10,17,05,15,5.40
2011,10,17,05,16,5.40
2011,10,17,05,17,5.40
2011,10,17,05,18,5.40
2011,10,17,05,19,5.40
2011,10,17,05,20,5.30
2011,10,17,05,21,5.30
2011,10,17,05,22,5.30
2011,10,17,05,23,5.30
2011,10,17,05,24,5.20
2011,10,17,05,25,5.20
2011,10,17,05,26,5.20
2011,10,17,05,27,5.20
2011,10,17,05,28,5.20
2011,10,17,05,29,5.10
2011,10,17,05,30,5.10
2011,10,17,05,31,5.10
2011,10,17,05,32,5.10
2011,10,17,05,33,5.10
2011,10,17,05,34,5.10
2011,10,17,05,35,5.00
2011,10,17,05,36,5.00
2011,10,17,05,37,5.00
2011,10,17,05,38,5.00
2011,10,17,05,39,5.00
2011,10,17,05,40,5.00
2011,10,17,05,41,5.00
2011,10,17,05,42,5.00
2011,10,17,05,43,5.00
2011,10,17,05,44,4.90
2011,10,17,05,45,4.90
2011,10,17,05,46,4.90
2011,10,17,05,47,4.90
2011,10,17,05,48,4.90
2011,10,17,05,49,4.90
2011,10,17,05,50,4.90
2011,10,17,05,51,4.90
2011,10,17,05,52,4.90
2011,10,17,05,53,4.90
2011,10,17,05,54,4.90
2011,10,17,05,55,4.90
2011,10,17,05,56,4.90
2011,10,17,05,57,4.90
2011,10,17,05,58,4.90
2011,10,17,05,59,4.90
2011,10,17,06,00,4.90
2011,10,17,06,01,4.90
2011,10,17,06,02,4.90
2011,10,17,06,03,4.90
2011,10,17,06,04,4.90
2011,10,17,06,05,4.90
2011,10,17,06,06,4.90
2011,10,17,06,07,4.80
2011,10,17,06,08,4.80
2011,10,17,06,09,4.80
2011,10,17,06,10,4.80
2011,10,17,06,11,4.80
2011,10,17,06,12,4.70
2011,10,17,06,13,4.70
2011,10,17,06,14,4.70
2011,10,17,06,15,4.70
2011,10,17,06,16,4.60
2011,10,17,06,17,4.60
2011,10,17,06,18,4.60
2011,10,17,06,19,4.60
2011,10,17,06,20,4.50
2011,10,17,06,21,4.50
2011,10,17,06,22,4.50
2011,10,17,06,23,4.50
2011,10,17,06,24,4.50
2011,10,17,06,25,4.40
2011,10,17,06,26,4.40
2011,10,17,06,27,4.40
2011,10,17,06,28,4.40
2011,10,17,06,29,4.40
2011,10,17,06,30,4.40
2011,10,17,06,31,4.40
2011,10,17,06,32,4.40
2011,10,17,06,33,4.40
2011,10,17,06,34,4.40
2011,10,17,06,35,4.40
2011,10,17,06,36,4.40
2011,10,17,06,37,4.30
2011,10,17,06,38,4.30
2011,10,17,06,39,4.30
2011,10,17,06,40,4.30
2011,10,17,06,41,4.30
2011,10,17,06,42,4.30
2011,10,17,06,43,4.30
2011,10,17,06,44,4.30
2011,10,17,06,45,4.30
2011,10,17,06,46,4.30
2011,10,17,06,47,4.30
2011,10,17,06,48,4.30
2011,10,17,06,49,4.30
2011,10,17,06,50,4.30
2011,10,17,06,51,4.30
2011,10,17,06,52,4.30
2011,10,17,06,53,4.20
2011,10,17,06,54,4.20
2011,10,17,06,55,4.20
2011,10,17,06,56,4.20
2011,10,17,06,57,4.20
2011,10,17,06,58,4.20
2011,10,17,06,59,4.20
2011,10,17,07,00,4.20
2011,10,17,07,01,4.20
2011,10,17,07,02,4.20
2011,10,17,07,03,4.20
2011,10,17,07,04,4.20
2011,10,17,07,05,4.20
2011,10,17,07,06,4.20
2011,10,17,07,07,4.20
2011,10,17,07,08,4.20
2011,10,17,07,09,4.20
2011,10,17,07,10,4.20
2011,10,17,07,11,4.20
2011,10,17,07,12,4.20
2011,10,17,07,13,4.20
2011,10,17,07,14,4.10
2011,10,17,07,15,4.10
2011,10,17,07,16,4.10
2011,10,17,07,17,4.10
2011,10,17,07,18,4.10
2011,10,17,07,19,4.10
2011,10,17,07,20,4.10
2011,10,17,07,21,4.10
2011,10,17,07,22,4.10
2011,10,17,07,23,4.10
2011,10,17,07,24,4.10
2011,10,17,07,25,4.10
2011,10,17,07,26,4.10
2011,10,17,07,27,4.20
2011,10,17,07,28,4.20
2011,10,17,07,29,4.20
2011,10,17,07,30,4.20
2011,10,17,07,31,4.20
2011,10,17,07,32,4.20
2011,10,17,07,33,4.20
2011,10,17,07,34,4.20
2011,10,17,07,35,4.20
2011,10,17,07,36,4.20
2011,10,17,07,37,4.30
2011,10,17,07,38,4.30
2011,10,17,07,39,4.30
2011,10,17,07,40,4.30
2011,10,17,07,41,4.30
2011,10,17,07,42,4.40
2011,10,17,07,43,4.40
2011,10,17,07,44,4.40
2011,10,17,07,45,4.40
2011,10,17,07,46,4.50
2011,10,17,07,47,4.50
2011,10,17,07,48,4.50
2011,10,17,07,49,4.50
2011,10,17,07,50,4.50
2011,10,17,07,51,4.50
2011,10,17,07,52,4.50
2011,10,17,07,53,4.50
2011,10,17,07,54,4.60
2011,10,17,07,55,4.60
2011,10,17,07,56,4.60
2011,10,17,07,57,4.60
2011,10,17,07,58,4.60
2011,10,17,07,59,4.60
2011,10,17,08,00,4.70
2011,10,17,08,01,4.70
2011,10,17,08,02,4.70
2011,10,17,08,03,4.70
2011,10,17,08,04,4.70
2011,10,17,08,05,4.70
2011,10,17,08,06,4.70
2011,10,17,08,07,4.80
2011,10,17,08,08,4.80
2011,10,17,08,09,4.80
2011,10,17,08,10,4.80
2011,10,17,08,11,4.80
2011,10,17,08,12,4.80
2011,10,17,08,13,4.80
2011,10,17,08,14,4.80
2011,10,17,08,15,4.80
2011,10,17,08,16,4.80
2011,10,17,08,17,4.90
2011,10,17,08,18,4.90
2011,10,17,08,19,4.90
2011,10,17,08,20,4.90
2011,10,17,08,21,4.90
2011,10,17,08,22,4.90
2011,10,17,08,23,4.90
2011,10,17,08,24,5.00
2011,10,17,08,25,5.00
2011,10,17,08,26,5.00
2011,10,17,08,27,5.00
2011,10,17,08,28,5.10
2011,10,17,08,29,5.10
2011,10,17,08,30,5.10
2011,10,17,08,31,5.10
2011,10,17,08,32,5.20
2011,10,17,08,33,5.20
2011,10,17,08,34,5.20
2011,10,17,08,35,5.30
2011,10,17,08,36,5.30
2011,10,17,08,37,5.30
2011,10,17,08,38,5.40
2011,10,17,08,39,5.40
2011,10,17,08,40,5.40
2011,10,17,08,41,5.40
2011,10,17,08,42,5.40
2011,10,17,08,43,5.40
2011,10,17,08,44,5.50
2011,10,17,08,45,5.50
2011,10,17,08,46,5.50
2011,10,17,08,47,5.50
2011,10,17,08,48,5.50
2011,10,17,08,49,5.60
2011,10,17,08,50,5.60
2011,10,17,08,51,5.60
2011,10,17,08,52,5.60
2011,10,17,08,53,5.70
2011,10,17,08,54,5.70
2011,10,17,08,55,5.70
2011,10,17,08,56,5.80
2011,10,17,08,57,5.80
2011,10,17,08,58,5.90
2011,10,17,08,59,5.90
2011,10,17,09,00,6.00
2011,10,17,09,01,6.00
2011,10,17,09,02,6.10
2011,10,17,09,03,6.10
2011,10,17,09,04,6.20
2011,10,17,09,05,6.20
2011,10,17,09,06,6.30
2011,10,17,09,07,6.30
2011,10,17,09,08,6.40
2011,10,17,09,09,6.40
2011,10,17,09,10,6.50
2011,10,17,09,11,6.50
2011,10,17,09,12,6.60
2011,10,17,09,13,6.60
2011,10,17,09,14,6.70
2011,10,17,09,15,6.70
2011,10,17,09,16,6.80
2011,10,17,09,17,6.80
2011,10,17,09,18,6.80
2011,10,17,09,19,6.90
2011,10,17,09,20,6.90
2011,10,17,09,21,7.00
2011,10,17,09,22,7.10
2011,10,17,09,23,7.10
2011,10,17,09,24,7.20
2011,10,17,09,25,7.20
2011,10,17,09,26,7.20
2011,10,17,09,27,7.30
2011,10,17,09,28,7.40
2011,10,17,09,29,7.40
2011,10,17,09,30,7.50
2011,10,17,09,31,7.50
2011,10,17,09,32,7.60
2011,10,17,09,33,7.60
2011,10,17,09,34,7.60
2011,10,17,09,35,7.60
2011,10,17,09,36,7.70
2011,10,17,09,37,7.70
2011,10,17,09,38,7.70
2011,10,17,09,39,7.70
2011,10,17,09,40,7.70
2011,10,17,09,41,7.70
2011,10,17,09,42,7.80
2011,10,17,09,43,7.80
2011,10,17,09,44,7.80
2011,10,17,09,45,7.80
2011,10,17,09,46,7.90
2011,10,17,09,47,7.90
2011,10,17,09,48,7.90
2011,10,17,09,49,8.00
2011,10,17,09,50,8.10
2011,10,17,09,51,8.10
2011,10,17,09,52,8.20
2011,10,17,09,53,8.20
2011,10,17,09,54,8.20
2011,10,17,09,55,8.30
2011,10,17,09,56,8.30
2011,10,17,09,57,8.30
2011,10,17,09,58,8.40
2011,10,17,09,59,8.40
2011,10,17,10,00,8.40
2011,10,17,10,01,8.50
2011,10,17,10,02,8.60
2011,10,17,10,03,8.60
2011,10,17,10,04,8.70
2011,10,17,10,05,8.80
2011,10,17,10,06,8.90
2011,10,17,10,07,8.90
2011,10,17,10,08,9.00
2011,10,17,10,09,9.00
2011,10,17,10,10,9.10
2011,10,17,10,11,9.10
2011,10,17,10,12,9.10
2011,10,17,10,13,9.10
2011,10,17,10,14,9.10
2011,10,17,10,15,9.20
2011,10,17,10,16,9.20
2011,10,17,10,17,9.20
2011,10,17,10,18,9.20
2011,10,17,10,19,9.30
2011,10,17,10,20,9.30
2011,10,17,10,21,9.40
2011,10,17,10,22,9.40
2011,10,17,10,23,9.50
2011,10,17,10,24,9.60
2011,10,17,10,25,9.60
2011,10,17,10,26,9.70
2011,10,17,10,27,9.80
2011,10,17,10,28,9.80
2011,10,17,10,29,9.90
2011,10,17,10,30,9.90
2011,10,17,10,31,10.00
2011,10,17,10,32,10.00
2011,10,17,10,33,10.10
2011,10,17,10,34,10.10
2011,10,17,10,35,10.10
2011,10,17,10,36,10.10
2011,10,17,10,37,10.10
2011,10,17,10,38,10.10
2011,10,17,10,39,10.10
2011,10,17,10,40,10.10
2011,10,17,10,41,10.10
2011,10,17,10,42,10.10
2011,10,17,10,43,10.20
2011,10,17,10,44,10.20
2011,10,17,10,45,10.20
2011,10,17,10,46,10.20
2011,10,17,10,47,10.10
2011,10,17,10,48,10.10
2011,10,17,10,49,10.10
2011,10,17,10,50,10.10
2011,10,17,10,51,10.10
2011,10,17,10,52,10.10
2011,10,17,10,53,10.10
2011,10,17,10,54,10.10
2011,10,17,10,55,10.10
2011,10,17,10,56,10.10
2011,10,17,10,57,10.20
2011,10,17,10,58,10.20
2011,10,17,10,59,10.30
2011,10,17,11,00,10.30
2011,10,17,11,01,10.30
2011,10,17,11,02,10.30
2011,10,17,11,03,10.30
2011,10,17,11,04,10.30
2011,10,17,11,05,10.30
2011,10,17,11,06,10.30
2011,10,17,11,07,10.30
2011,10,17,11,08,10.40
2011,10,17,11,09,10.40
2011,10,17,11,10,10.40
2011,10,17,11,11,10.40
2011,10,17,11,12,10.40
2011,10,17,11,13,10.40
2011,10,17,11,14,10.50
2011,10,17,11,15,10.50
2011,10,17,11,16,10.50
2011,10,17,11,17,10.50
2011,10,17,11,18,10.40
2011,10,17,11,19,10.30
2011,10,17,11,20,10.30
2011,10,17,11,21,10.30
2011,10,17,11,22,10.30
2011,10,17,11,23,10.30
2011,10,17,11,24,10.30
2011,10,17,11,25,10.30
2011,10,17,11,26,10.40
2011,10,17,11,27,10.40
2011,10,17,11,28,10.40
2011,10,17,11,29,10.40
2011,10,17,11,30,10.40
2011,10,17,11,31,10.50
2011,10,17,11,32,10.50
2011,10,17,11,33,10.60
2011,10,17,11,34,10.60
2011,10,17,11,35,10.60
2011,10,17,11,36,10.60
2011,10,17,11,37,10.60
2011,10,17,11,38,10.70
2011,10,17,11,39,10.70
2011,10,17,11,40,10.70
2011,10,17,11,41,10.80
2011,10,17,11,42,10.80
2011,10,17,11,43,10.80
2011,10,17,11,44,10.80
2011,10,17,11,45,10.90
2011,10,17,11,46,10.90
2011,10,17,11,47,10.90
2011,10,17,11,48,10.90
2011,10,17,11,49,10.80
2011,10,17,11,50,10.80
2011,10,17,11,51,10.80
2011,10,17,11,52,10.90
2011,10,17,11,53,11.00
2011,10,17,11,54,11.00
2011,10,17,11,55,11.00
2011,10,17,11,56,10.90
2011,10,17,11,57,10.90
2011,10,17,11,58,10.90
2011,10,17,11,59,11.00
2011,10,17,12,00,11.00
2011,10,17,12,01,11.00
2011,10,17,12,02,11.00
2011,10,17,12,03,11.00
2011,10,17,12,04,10.90
2011,10,17,12,05,10.80
2011,10,17,12,06,10.80
2011,10,17,12,07,10.70
2011,10,17,12,08,10.70
2011,10,17,12,09,10.60
2011,10,17,12,10,10.60
2011,10,17,12,11,10.60
2011,10,17,12,12,10.60
2011,10,17,12,13,10.70
2011,10,17,12,14,10.90
2011,10,17,12,15,11.00
2011,10,17,12,16,11.10
2011,10,17,12,17,11.20
2011,10,17,12,18,11.30
2011,10,17,12,19,11.30
2011,10,17,12,20,11.40
2011,10,17,12,21,11.40
2011,10,17,12,22,11.50
2011,10,17,12,23,11.40
2011,10,17,12,24,11.40
2011,10,17,12,25,11.50
2011,10,17,12,26,11.50
2011,10,17,12,27,11.40
2011,10,17,12,28,11.30
2011,10,17,12,29,11.30
2011,10,17,12,30,11.30
2011,10,17,12,31,11.30
2011,10,17,12,32,11.20
2011,10,17,12,33,11.20
2011,10,17,12,34,11.20
2011,10,17,12,35,11.20
2011,10,17,12,36,11.20
2011,10,17,12,37,11.20
2011,10,17,12,38,11.20
2011,10,17,12,39,11.20
2011,10,17,12,40,11.20
2011,10,17,12,41,11.20
2011,10,17,12,42,11.20
2011,10,17,12,43,11.20
2011,10,17,12,44,11.20
2011,10,17,12,45,11.20
2011,10,17,12,46,11.20
2011,10,17,12,47,11.30
2011,10,17,12,48,11.30
2011,10,17,12,49,11.40
2011,10,17,12,50,11.40
2011,10,17,12,51,11.50
2011,10,17,12,52,11.70
2011,10,17,12,53,11.80
2011,10,17,12,54,11.80
2011,10,17,12,55,11.80
2011,10,17,12,56,11.80
2011,10,17,12,57,11.80
2011,10,17,12,58,11.80
2011,10,17,12,59,11.80
2011,10,17,13,00,11.90
2011,10,17,13,01,12.00
2011,10,17,13,02,12.10
2011,10,17,13,03,12.10
2011,10,17,13,04,12.00
2011,10,17,13,05,12.10
2011,10,17,13,06,12.00
2011,10,17,13,07,12.00
2011,10,17,13,08,12.00
2011,10,17,13,09,11.90
2011,10,17,13,10,11.90
2011,10,17,13,11,11.80
2011,10,17,13,12,11.80
2011,10,17,13,13,11.80
2011,10,17,13,14,11.80
2011,10,17,13,15,11.90
2011,10,17,13,16,11.90
2011,10,17,13,17,11.90
2011,10,17,13,18,12.00
2011,10,17,13,19,12.00
2011,10,17,13,20,12.00
2011,10,17,13,21,12.10
2011,10,17,13,22,12.10
2011,10,17,13,23,12.10
2011,10,17,13,24,12.10
2011,10,17,13,25,12.10
2011,10,17,13,26,12.20
2011,10,17,13,27,12.20
2011,10,17,13,28,12.30
2011,10,17,13,29,12.40
2011,10,17,13,30,12.40
2011,10,17,13,31,12.30
2011,10,17,13,32,12.30
2011,10,17,13,33,12.30
2011,10,17,13,34,12.30
2011,10,17,13,35,12.30
2011,10,17,13,36,12.30
2011,10,17,13,37,12.30
2011,10,17,13,38,12.30
2011,10,17,13,39,12.20
2011,10,17,13,40,12.20
2011,10,17,13,41,12.20
2011,10,17,13,42,12.20
2011,10,17,13,43,12.20
2011,10,17,13,44,12.30
2011,10,17,13,45,12.40
2011,10,17,13,46,12.40
2011,10,17,13,47,12.40
2011,10,17,13,48,12.40
2011,10,17,13,49,12.30
2011,10,17,13,50,12.30
2011,10,17,13,51,12.20
2011,10,17,13,52,12.20
2011,10,17,13,53,12.10
2011,10,17,13,54,12.10
2011,10,17,13,55,12.20
2011,10,17,13,56,12.10
2011,10,17,13,57,12.10
2011,10,17,13,58,12.10
2011,10,17,13,59,12.10
2011,10,17,14,00,12.10
2011,10,17,14,01,12.10
2011,10,17,14,02,12.20
2011,10,17,14,03,12.20
2011,10,17,14,04,12.20
2011,10,17,14,05,12.20
2011,10,17,14,06,12.20
2011,10,17,14,07,12.20
2011,10,17,14,08,12.30
2011,10,17,14,09,12.40
2011,10,17,14,10,12.50
2011,10,17,14,11,12.50
2011,10,17,14,12,12.60
2011,10,17,14,13,12.70
2011,10,17,14,14,12.70
2011,10,17,14,15,12.70
2011,10,17,14,16,12.80
2011,10,17,14,17,12.80
2011,10,17,14,18,12.80
2011,10,17,14,19,12.80
2011,10,17,14,20,12.80
2011,10,17,14,21,12.90
2011,10,17,14,22,12.90
2011,10,17,14,23,12.80
2011,10,17,14,24,12.80
2011,10,17,14,25,12.80
2011,10,17,14,26,12.80
2011,10,17,14,27,12.90
2011,10,17,14,28,13.00
2011,10,17,14,29,13.10
2011,10,17,14,30,13.10
2011,10,17,14,31,13.10
2011,10,17,14,32,13.10
2011,10,17,14,33,13.10
2011,10,17,14,34,13.20
2011,10,17,14,35,13.20
2011,10,17,14,36,13.20
2011,10,17,14,37,13.10
2011,10,17,14,38,13.10
2011,10,17,14,39,13.20
2011,10,17,14,40,13.20
2011,10,17,14,41,13.20
2011,10,17,14,42,13.20
2011,10,17,14,43,13.20
2011,10,17,14,44,13.20
2011,10,17,14,45,13.20
2011,10,17,14,46,13.20
2011,10,17,14,47,13.20
2011,10,17,14,48,13.30
2011,10,17,14,49,13.30
2011,10,17,14,50,13.30
2011,10,17,14,51,13.30
2011,10,17,14,52,13.30
2011,10,17,14,53,13.40
2011,10,17,14,54,13.40
2011,10,17,14,55,13.40
2011,10,17,14,56,13.30
2011,10,17,14,57,13.20
2011,10,17,14,58,13.20
2011,10,17,14,59,13.20
2011,10,17,15,00,13.20
2011,10,17,15,01,13.20
2011,10,17,15,02,13.20
2011,10,17,15,03,13.20
2011,10,17,15,04,13.20
2011,10,17,15,05,13.20
2011,10,17,15,06,13.20
2011,10,17,15,07,13.20
2011,10,17,15,08,13.20
2011,10,17,15,09,13.10
2011,10,17,15,10,13.10
2011,10,17,15,11,13.10
2011,10,17,15,12,13.10
2011,10,17,15,13,13.10
2011,10,17,15,14,13.00
2011,10,17,15,15,13.00
2011,10,17,15,16,13.00
2011,10,17,15,17,13.10
2011,10,17,15,18,13.10
2011,10,17,15,19,13.20
2011,10,17,15,20,13.30
2011,10,17,15,21,13.30
2011,10,17,15,22,13.30
2011,10,17,15,23,13.20
2011,10,17,15,24,13.20
2011,10,17,15,25,13.10
2011,10,17,15,26,13.10
2011,10,17,15,27,13.00
2011,10,17,15,28,13.00
2011,10,17,15,29,12.90
2011,10,17,15,30,12.90
2011,10,17,15,31,12.90
2011,10,17,15,32,12.90
2011,10,17,15,33,12.90
2011,10,17,15,34,12.90
2011,10,17,15,35,12.90
2011,10,17,15,36,13.00
2011,10,17,15,37,13.00
2011,10,17,15,38,13.10
2011,10,17,15,39,13.10
2011,10,17,15,40,13.10
2011,10,17,15,41,13.20
2011,10,17,15,42,13.20
2011,10,17,15,43,13.30
2011,10,17,15,44,13.30
2011,10,17,15,45,13.30
2011,10,17,15,46,13.30
2011,10,17,15,47,13.40
2011,10,17,15,48,13.40
2011,10,17,15,49,13.40
2011,10,17,15,50,13.40
2011,10,17,15,51,13.40
2011,10,17,15,52,13.40
2011,10,17,15,53,13.30
2011,10,17,15,54,13.30
2011,10,17,15,55,13.30
2011,10,17,15,56,13.30
2011,10,17,15,57,13.20
2011,10,17,15,58,13.20
2011,10,17,15,59,13.20
2011,10,17,16,00,13.20
2011,10,17,16,01,13.20
2011,10,17,16,02,13.20
2011,10,17,16,03,13.20
2011,10,17,16,04,13.20
2011,10,17,16,05,13.20
2011,10,17,16,06,13.20
2011,10,17,16,07,13.20
2011,10,17,16,08,13.20
2011,10,17,16,09,13.30
2011,10,17,16,10,13.30
2011,10,17,16,11,13.40
2011,10,17,16,12,13.50
2011,10,17,16,13,13.50
2011,10,17,16,14,13.60
2011,10,17,16,15,13.70
2011,10,17,16,16,13.70
2011,10,17,16,17,13.80
2011,10,17,16,18,13.80
2011,10,17,16,19,13.80
2011,10,17,16,20,13.90
2011,10,17,16,21,13.90
2011,10,17,16,22,13.90
2011,10,17,16,23,14.00
2011,10,17,16,24,14.10
2011,10,17,16,25,14.10
2011,10,17,16,26,14.20
2011,10,17,16,27,14.10
2011,10,17,16,28,14.10
2011,10,17,16,29,14.00
2011,10,17,16,30,14.00
2011,10,17,16,31,14.00
2011,10,17,16,32,14.10
2011,10,17,16,33,14.10
2011,10,17,16,34,14.10
2011,10,17,16,35,14.10
2011,10,17,16,36,14.10
2011,10,17,16,37,14.00
2011,10,17,16,38,14.00
2011,10,17,16,39,13.90
2011,10,17,16,40,13.70
2011,10,17,16,41,13.60
2011,10,17,16,42,13.60
2011,10,17,16,43,13.50
2011,10,17,16,44,13.40
2011,10,17,16,45,13.30
2011,10,17,16,46,13.20
2011,10,17,16,47,13.20
2011,10,17,16,48,13.10
2011,10,17,16,49,13.10
2011,10,17,16,50,13.10
2011,10,17,16,51,13.00
2011,10,17,16,52,13.00
2011,10,17,16,53,12.90
2011,10,17,16,54,12.90
2011,10,17,16,55,12.90
2011,10,17,16,56,12.90
2011,10,17,16,57,12.90
2011,10,17,16,58,12.90
2011,10,17,16,59,12.90
2011,10,17,17,00,12.90
2011,10,17,17,01,12.80
2011,10,17,17,02,12.80
2011,10,17,17,03,12.70
2011,10,17,17,04,12.70
2011,10,17,17,05,12.70
2011,10,17,17,06,12.60
2011,10,17,17,07,12.60
2011,10,17,17,08,12.60
2011,10,17,17,09,12.50
2011,10,17,17,10,12.50
2011,10,17,17,11,12.50
2011,10,17,17,12,12.50
2011,10,17,17,13,12.50
2011,10,17,17,14,12.50
2011,10,17,17,15,12.50
2011,10,17,17,16,12.50
2011,10,17,17,17,12.50
2011,10,17,17,18,12.50
2011,10,17,17,19,12.40
2011,10,17,17,20,12.40
2011,10,17,17,21,12.40
2011,10,17,17,22,12.40
2011,10,17,17,23,12.40
2011,10,17,17,24,12.40
2011,10,17,17,25,12.40
2011,10,17,17,26,12.40
2011,10,17,17,27,12.40
2011,10,17,17,28,12.40
2011,10,17,17,29,12.40
2011,10,17,17,30,12.40
2011,10,17,17,31,12.40
2011,10,17,17,32,12.40
2011,10,17,17,33,12.40
2011,10,17,17,34,12.40
2011,10,17,17,35,12.40
2011,10,17,17,36,12.40
2011,10,17,17,37,12.40
2011,10,17,17,38,12.40
2011,10,17,17,39,12.40
2011,10,17,17,40,12.40
2011,10,17,17,41,12.40
2011,10,17,17,42,12.40
2011,10,17,17,43,12.30
2011,10,17,17,44,12.30
2011,10,17,17,45,12.30
2011,10,17,17,46,12.30
2011,10,17,17,47,12.30
2011,10,17,17,48,12.30
2011,10,17,17,49,12.30
2011,10,17,17,50,12.30